Weather Roundup
Issued by NWS Chicago, IL

Home | Current Version | Previous Version | Graphics & Text | Print | Product List | Glossary On
Versions: 1 2 3 4 5 6 7 8 9 10 11 12 13 14 15 16 17 18 19 20 21 22 23 24 25 26 27 28 29 30 31 32 33 34 35 36 37 38 39 40 41 42 43 44 45 46 47 48 49 50
000
NZUS59 KLOT 291908
HRRLOT

CHICAGO AREA WEATHER ROUNDUP
NATIONAL WEATHER SERVICE CHICAGO/ROMEOVILLE IL
200 PM CDT SUN MAY 29 2016

NOTE: "FAIR" INDICATES FEW OR NO CLOUDS BELOW 12,000 FEET WITH NO
SIGNIFICANT WEATHER AND/OR OBSTRUCTIONS TO VISIBILITY.

* THESE STATIONS ARE NOT UNDER NWS QUALITY CONTROL. THEY ALSO MAY NOT
  REPORT WEATHER SUCH AS PRECIPITATION OR FOG.

ILZ005-006-012>014-019>023-292000-
NORTHEAST ILLINOIS

CITY           SKY/WX    TMP DP  RH WIND       PRES   REMARKS
OHARE          MOSUNNY   76  60  57 SW17      30.01S
MIDWAY         MOSUNNY   79  58  48 W15       30.01S HX  80
AURORA         MOSUNNY   77  63  61 W14       30.03F
LANSING*       MOSUNNY   79  58  48 W14       30.02S HX  80
JOLIET*        PTSUNNY   80  59  49 W12G17    30.03F HX  81
WAUKEGAN       MOSUNNY   77  61  57 SW8G22    29.98F
DUPAGE AIRPORT PTSUNNY   76  59  55 SW15      30.02F
WHEELING       PTSUNNY   77  60  55 W10G22    30.01F
KANKAKEE*      MOSUNNY   81  58  44 W14       30.04S HX  81
MORRIS*        MOSUNNY   80  58  47 W15G21    30.02F HX  80
LEWIS AIRPORT* MOSUNNY   79  56  45 W14G22    30.03F HX  80
$$

WIZ051-052-058>065-066-070>072-292000-
SOUTHEAST WISCONSIN

CITY           SKY/WX    TMP DP  RH WIND       PRES   REMARKS
MILWAUKEE      PTSUNNY   75  59  57 W10       29.96S
KENOSHA*       MOSUNNY   75  60  59 SW18G25   29.98F
RACINE*        MOSUNNY   77  59  53 SW12G21   29.98F
BURLINGTON     MOSUNNY   75  57  52 SW13G26   29.97F
WAUKESHA       PTSUNNY   73  57  56 W17G25    29.97S
WEST BEND      PTSUNNY   73  55  53 SW17G24   29.94S
$$

INZ001>003-010>013-019-020-292000-
NORTHWEST INDIANA

CITY           SKY/WX    TMP DP  RH WIND       PRES   REMARKS
GARY*          MOSUNNY   81  64  57 W21       30.03R HX  82
MICHIGAN CITY* NOT AVBL
RENSSELAER*    NOT AVBL
VALPARAISO     MOSUNNY   83  58  42 W20       30.02S HX  83
$$

LMZ740>746-292000-
SOUTHERN LAKE MICHIGAN

STATION/POSITION TIME  SKY/WX   TEMP WIND        PRES    VSBY
                                AIR  DIR/SP/G
                 (UTC)          (F)  (DEG/KT/KT) (MB)    (MI)
HARRISON CRIB    1800            75  260/ 19/ 21   N/A
BURNHAM HARBOR   1900            76  200/ 13/ 15   N/A
CALUMET HARBOR   1800            79  230/  8/ 19 1015.7R
BURNS HARBOR     1800            73  250/ 18/ 24 1016.6R
MICHIGAN CITY    1800            68  240/ 18/ 19   N/A
$$

ABBREVIATIONS USED IN REMARKS
   TC - TEMPERATURE IN CELSIUS
  WCI - WIND CHILL INDEX
   HX - HEAT INDEX
  VSB - VISIBILITY
$$




USA.gov is the U.S. government's official web portal to all federal, state and local government web resources and services.